STARLINK-31332, 59566

Orbit data source: Space-Track

STARLINK-31332, 59566 is a payload satellite owned by SpaceX/Seattle (US) in LEO that was launched on Tue, 23 Apr 2024 UTC via an FALCON 9 launch vehicle from the Air Force Eastern Test Range (AFETR). Payload-class satellites include a variety of spacecraft equipped with specific instruments for various scientific and technological missions. These include communications satellites like Starlink; space stations such as the ISS; scientific satellites like the Hubble; Earth observation satellites from companies like Planet Labs, Umbra, and HawkEye 360; GPS; miniature CubeSats for education and research; and military/defense satellites.

Loading next visibility...
Identifier
59566, 2024-076C
Orbit
LEO
Last TLE update
13 hours ago
Origin
Manufacturer
SpaceX/Seattle
Mission
Operational spacecraft
Bus & Motor
STARLINK V2M, Unknown motor
Mass
730 kg wet, ~700 kg dry
Launch date (UTC)
2024-04-23 (1 year ago)
Launch vehicle
FALCON 9
Launch site
Air Force Eastern Test Range (AFETR)
Object type
Payload
Rocket body
Debris
Shape & HBR
Unknown
Radar Cross Section
Large (>1 m²)

Expand to show TLE details & history

TLE from 13 hours ago
0 STARLINK-31332
1 59566U 24076C   25181.87578524  .00001334  00000-0  58002-4 0  9993
2 59566  43.0062 350.8855 0001482 280.4091  79.6594 15.27586310 67990
Epoch: 2025-06-30T21:01Z
TLE epoch observation values (Epoch: 2025-06-30T21:01:07.844Z)
Latitude
-0.00001°
Longitude
116.4235°
Altitude
482.624 km
Speed
7.626 km/s
True Right ascension
23h 23m 32s
True Declination
0° 00' 00"
Sunlit
Object was in daylight at epoch
Visualization orbit readout
Latitude
36.54694°
Longitude
-118.86868°
Altitude
485.763 km
Speed
7.627 km/s
Apparent Right ascension
08h 39m 28s
Apparent Declination
0° 01' 32"
Sunlit
Object is in daylight
Visualization observer readout
Local Sidereal Time
21:44:00
Azimuth
24.279° NE
Elevation
-47.482°
Doppler factor
1
Orbital elements
Apogee altitude
485.991 km
Perigee altitude
483.957 km
Semi-major axis
6,863.111 km
Eccentricity
0.00015
Inclination
43.0062°
RAAN
350.8855°
Arg. of periapsis
280.4091°
True anomaly
Unknown
Mean anomaly
79.6594°
Eccentric anomaly
Unknown
Mean motion
3.81735 °/min
Orbital period
94.31 mins
BSTAR
0.000058002
Loading maneuver chart data...
Loading SW <> Apogee altitude chart data...
Loading historical data...
Loading historical data...
Loading historical data...
Loading historical data...
Loading historical data...
Loading historical data...
Loading historical data...

STARLINK-31332 Visibility forecast

Observer location: undefined°, undefined°

Span
Click to sort rows by Start time (UTC) header in descending order
Start Az.
Max El. time (UTC)
Max El. Az.
Max El.
End time (UTC)
End Az.
6 mins2025-07-01 14:28:37.161Z216.502° SW2025-07-01 14:31:37.161Z162.462° S29.827°2025-07-01 14:34:37.161Z88.524° E
5 mins2025-07-01 16:08:37.161Z267.421° W2025-07-01 16:10:37.161Z328.074° NNW42.796°2025-07-01 16:13:37.161Z68.702° E
6 mins2025-07-01 17:47:37.161Z293.266° NW2025-07-01 17:49:37.161Z341.522° N37.732°2025-07-01 17:53:37.161Z82.858° E
6 mins2025-07-01 19:26:37.161Z283.303° WNW2025-07-01 19:28:37.161Z251.15° W41.82°2025-07-01 19:32:37.161Z118.22° SE
|